Regional Weather Roundup
Issued by NWS Cleveland, OH

Home | Current Version | Previous Version | Graphics & Text | Print | Product List | Glossary On
Versions: 1 2 3 4 5 6 7 8 9 10 11 12 13 14 15 16 17 18 19 20 21 22 23 24 25 26 27 28 29 30 31 32 33 34 35 36 37 38 39 40 41 42 43 44 45 46 47 48 49 50
000
ASUS41 KCLE 070600
RWRCLE
OHIO REGIONAL WEATHER ROUNDUP
NATIONAL WEATHER SERVICE WILMINGTON, OH
100 AM EST WED DEC 07 2016

NOTE: "FAIR" INDICATES FEW OR NO CLOUDS BELOW 12,000 FEET WITH NO
SIGNIFICANT WEATHER AND/OR OBSTRUCTIONS TO VISIBILITY.

OHZ001>008-015>018-024>027-034-035-043-044-070700-
   NORTHWEST OHIO

CITY           SKY/WX    TMP DP  RH WIND       PRES   REMARKS
DEFIANCE       FAIR      33  25  72 W9        29.94R WCI  25
FINDLAY        MOCLDY    33  27  78 W13       29.93R WCI  24
TOLEDO EXPRESS MOCLDY    33  30  88 SW14      29.90R WCI  23
TOLEDO EXEC    CLOUDY    35  32  88 SW17      29.91R WCI  25
LIMA           FAIR      31  28  89 W15       29.95R WCI  20
$$

OHZ009>014-019>023-028>033-038-089-070700-
   NORTHEAST OHIO

CITY           SKY/WX    TMP DP  RH WIND       PRES   REMARKS
CLE-HOPKINS    CLOUDY    39  33  79 W14       29.90R
CLE-LAKEFRONT  CLOUDY    39  35  86 SW18      29.87R
CUY CO. ARPT   NOT AVBL
LORAIN-ELYRIA  CLOUDY    37  31  78 W12       29.89R
ASHTABULA      CLOUDY    40  38  93 W12       29.82R
AKRON-CANTON   CLOUDY    37  33  85 W12G22    29.88R FOG
WOOSTER        CLOUDY    36  32  85 W13       29.90R
MANSFIELD      CLOUDY    35  31  85 W10       29.90S WCI  27
YOUNGSTOWN     CLOUDY    37  35  92 W13       29.84R
$$

OHZ042-051>053-060>062-070>072-077>081-070700-
  SOUTHWEST OHIO

CITY           SKY/WX    TMP DP  RH WIND       PRES   REMARKS
CINC-COVINGTON FAIR      34  30  85 W8        30.02F WCI  27
CINC-LUNKEN    FAIR      35  30  82 CALM      30.05S
HAMILTON       FAIR      34  27  75 W8        30.04R WCI  27
DAYTON         NOT AVBL
WRIGHT-PAT AFB NOT AVBL
DAYTON GENERAL FAIR      33  26  75 W7        30.00R WCI  27
WILMINGTON     MOCLDY    33  29  85 W8        30.01R WCI  26
$$

OHZ036-037-039>041-045>050-054>059-063>069-073>076-082>088-070700-
  CENTRAL AND SOUTHEAST OHIO

CITY           SKY/WX    TMP DP  RH WIND       PRES   REMARKS
COLUMBUS       CLOUDY    36  33  89 W14       29.97R
OSU AIRPORT    CLOUDY    35  31  85 W10       29.97R WCI  27
BOLTON FIELD   NOT AVBL
RICKENBACK AFB NOT AVBL
NEWARK         CLOUDY    38  33  82 W8        29.96R
MARION         MOCLDY    35  29  78 W13G20    29.95R WCI  26
LANCASTER      CLOUDY    38  33  82 W8        29.98R
ZANESVILLE     CLOUDY    38  35  89 W7        29.95R
NEW PHILLY     CLOUDY    38  34  85 W7        29.93R
$$




USA.gov is the U.S. government's official web portal to all federal, state and local government web resources and services.